{"data":{"norad_id":46082,"intl_designator":"2020-055BH","name":"STARLINK-1578","alt_names":[],"object_type":"PAYLOAD","status":"ACTIVE","operator":null,"country":"US","launch_date":"2020-08-07","launch_site_code":"AFETR","launch_vehicle":null,"mission":null,"orbit_class":"UNKNOWN","rcs_meters":null,"size_class":null,"mass_kg":null,"dimensions":null,"purposes":["comms"],"wikipedia_slug":null,"has_3d_model":false,"image_url":null,"decayed_at":null,"tle_current":{"epoch":"2026-05-25T04:01:13.408320Z","epoch_age_seconds":56581,"freshness":"FRESH","line1":"1 46082U 20055BH  26145.16751630  .00565985  00000+0  15802-1 0  9993","line2":"2 46082  53.1586 105.9426 0011730 227.9845 132.0159 15.33839960320942","mean_motion":15.3383996,"eccentricity":0.001173,"inclination_deg":53.1586,"raan_deg":105.9426,"arg_perigee_deg":227.9845,"mean_anomaly_deg":132.0159,"bstar":0.015802,"rev_number":32094,"period_min":93.882024041152,"perigee_km":456.34204484168,"apogee_km":472.39456228384,"semimajor_km":6842.5053035628,"source":"CELESTRAK","updated_at":"2026-05-25T13:38:16.465595Z"}}}